Temperature
8 8 7 7 7 7 7 7 7 7 6 6 6 6 6 6 6 6 5 5 5 5 5 5 5 5 4 4 4 4 4 3 3 3 3 3 3 3 3 3 3 3 3
7 7 7 7 7 7 7 6 6 6 6 6 6 6 6 5 5 5 5 5 5 5 5 4 4 4 4 4 4 3 3 3 2 2 3 3 3 3 3 3 3 3 3
7 6 6 6 6 6 6 6 6 6 5 5 5 5 5 5 5 5 4 4 4 4 4 4 4 3 3 3 3 3 3 2 2 2 2 2 2 2 2 2 2 2 2
6 6 6 6 6 6 5 5 5 5 5 5 5 4 4 4 4 4 4 4 4 4 4 3 3 3 3 3 2 2 2 2 2 1 1 2 2 1 1 1 2 2 2
6 5 5 5 5 5 5 5 5 4 4 4 4 4 4 4 4 4 4 3 3 3 3 3 3 2 2 2 2 2 2 1 1 1 1 1 1 1 1 1 0 1 1
5 5 5 5 5 4 4 4 4 4 4 4 3 3 3 3 3 3 3 3 3 2 2 2 2 2 2 2 2 1 1 1 1 1 0 0 0 0 0 -0 -0 -0 -0
5 4 4 4 4 4 4 4 4 3 3 3 3 3 3 3 2 2 2 2 2 2 2 2 2 2 2 1 1 1 1 0 0 0 -0 -0 -0 -0 -1 -1 -1 -1 -1
4 4 4 4 3 3 3 3 3 3 3 2 2 2 2 2 2 2 2 1 1 1 1 1 1 1 1 1 1 1 0 0 0 -0 -0 -0 -1 -1 -1 -1 -1 -1 -1
4 3 3 3 3 3 3 3 2 2 2 2 2 2 2 2 1 1 1 1 1 1 1 1 1 1 1 0 0 0 0 0 -0 -1 -1 -1 -1 -1 -2 -2 -2 -2 -2
3 3 3 2 2 2 2 2 2 2 1 1 1 1 1 1 1 1 0 0 0 0 0 0 0 0 -0 -0 -1 -1 -0 -0 -1 -1 -1 -1 -1 -2 -2 -2 -2 -3 -3
3 2 2 2 2 2 1 1 1 1 1 1 1 1 1 1 0 0 -0 -0 -0 -0 -0 -0 -0 -0 -1 -1 -1 -1 -1 -1 -2 -2 -2 -2 -2 -2 -2 -2 -3 -3 -3
2 2 2 1 1 1 1 1 1 0 0 0 0 0 0 0 -0 -0 -0 -1 -1 -1 -1 -1 -1 -1 -1 -1 -1 -2 -2 -2 -2 -2 -2 -2 -2 -2 -2 -3 -3 -3 -3
1 1 1 1 1 0 0 0 0 -0 -0 -0 -0 -0 -0 -0 -0 -1 -1 -1 -1 -1 -1 -1 -1 -1 -2 -2 -2 -2 -2 -2 -2 -3 -3 -3 -3 -3 -3 -3 -3 -4 -4
1 1 1 0 0 0 -0 -0 -0 -0 -1 -1 -1 -1 -1 -1 -1 -1 -1 -1 -1 -2 -2 -2 -2 -2 -2 -2 -2 -2 -2 -3 -3 -3 -3 -3 -3 -3 -4 -4 -4 -4 -4
0 0 -0 -0 -0 -0 -1 -1 -1 -1 -1 -1 -1 -2 -2 -1 -1 -1 -2 -2 -2 -2 -2 -2 -2 -2 -2 -2 -2 -3 -3 -3 -3 -3 -4 -4 -4 -4 -4 -4 -4 -5 -5
-0 -0 -1 -1 -1 -1 -1 -1 -1 -1 -2 -2 -2 -2 -2 -2 -2 -2 -2 -2 -2 -3 -3 -3 -3 -3 -3 -3 -3 -3 -3 -3 -4 -4 -4 -4 -4 -4 -4 -5 -5 -5 -5
-1 -1 -1 -1 -1 -1 -2 -2 -2 -2 -2 -2 -2 -2 -2 -2 -2 -3 -3 -3 -3 -3 -3 -3 -3 -3 -3 -3 -3 -4 -4 -4 -4 -4 -4 -4 -5 -5 -5 -5 -5 -5 -5
-1 -1 -2 -2 -2 -2 -2 -2 -2 -2 -2 -2 -2 -3 -3 -3 -3 -3 -3 -3 -3 -3 -3 -3 -3 -3 -4 -4 -4 -4 -4 -4 -4 -4 -5 -5 -5 -5 -5 -5 -6 -6 -6
-2 -2 -2 -2 -2 -3 -3 -3 -3 -3 -3 -3 -3 -3 -3 -3 -3 -3 -4 -4 -4 -4 -4 -4 -4 -4 -4 -4 -4 -4 -4 -4 -4 -5 -5 -5 -5 -5 -6 -6 -6 -6 -6
-2 -3 -3 -3 -3 -3 -3 -3 -3 -3 -3 -3 -3 -3 -3 -4 -4 -4 -4 -4 -4 -4 -4 -4 -4 -4 -4 -4 -4 -4 -5 -5 -5 -5 -5 -5 -6 -6 -6 -6 -6 -6 -6
-3 -3 -3 -3 -3 -3 -3 -4 -4 -4 -4 -4 -4 -4 -4 -4 -4 -4 -4 -4 -4 -4 -4 -4 -4 -4 -5 -5 -5 -5 -5 -5 -5 -5 -6 -6 -6 -6 -6 -6 -6 -6 -6
-3 -4 -4 -4 -4 -4 -4 -4 -4 -4 -4 -4 -4 -4 -4 -4 -4 -4 -4 -4 -4 -4 -4 -5 -5 -5 -5 -5 -5 -5 -5 -5 -5 -6 -6 -6 -6 -6 -6 -6 -6 -6 -6
-4 -4 -4 -4 -4 -4 -4 -4 -4 -4 -4 -4 -4 -5 -5 -5 -5 -5 -5 -5 -5 -5 -5 -5 -5 -5 -5 -5 -5 -5 -6 -6 -6 -6 -6 -6 -6 -6 -6 -6 -6 -7 -7
-4 -4 -4 -4 -5 -5 -5 -5 -5 -5 -5 -5 -5 -5 -5 -5 -5 -5 -5 -5 -5 -5 -5 -5 -5 -5 -5 -5 -6 -6 -6 -6 -6 -6 -6 -6 -7 -7 -7 -7 -7 -7 -7
-5 -5 -5 -5 -5 -5 -5 -5 -5 -5 -5 -5 -5 -5 -5 -5 -5 -5 -5 -5 -5 -5 -5 -5 -5 -5 -5 -6 -6 -6 -6 -6 -6 -6 -7 -7 -7 -7 -7 -7 -7 -7 -7
-5 -5 -5 -5 -5 -5 -5 -5 -5 -5 -6 -6 -6 -5 -6 -6 -6 -6 -5 -6 -6 -6 -6 -6 -6 -6 -6 -6 -6 -6 -6 -6 -6 -7 -7 -7 -7 -7 -7 -7 -7 -7 -7
Wind_Speed
3 4 4 4 4 4 4 4 4 3 3 3 3 3 3 3 2 2 3 3 3 3 3 3 4 3 3 2 2 3 3 3 6 5 3 3 3 4 6 7 7 7 8
4 4 4 3 3 4 4 4 4 4 4 4 3 3 3 3 3 3 4 4 4 4 4 4 5 3 3 3 3 3 4 4 5 7 5 3 4 4 4 5 6 7 7
3 4 4 4 4 4 4 4 4 4 4 4 4 4 4 4 4 4 4 5 5 5 5 5 5 4 5 4 4 4 4 4 4 5 6 4 4 3 4 5 5 5 7
4 4 4 4 4 4 4 4 4 4 4 4 4 4 4 4 4 5 5 5 5 5 5 6 6 6 6 6 5 5 4 4 4 5 5 5 4 3 3 4 5 4 5
4 4 5 4 4 4 4 4 4 4 4 4 4 4 4 4 5 5 5 5 5 5 5 6 6 7 9 7 6 5 5 5 4 5 5 5 5 3 4 3 5 5 5
4 4 4 4 4 4 4 4 4 4 4 4 4 5 5 5 6 8 6 5 5 6 6 6 6 7 9 11 11 10 8 7 6 6 6 7 7 5 4 4 4 5 5
4 4 4 4 5 5 5 4 5 5 4 5 5 5 6 7 9 9 9 5 5 6 6 6 6 6 7 6 8 9 10 12 11 8 8 8 7 6 5 5 5 6 7
4 4 4 4 5 5 5 5 5 4 5 5 6 6 6 7 9 9 9 6 5 6 6 6 7 6 6 6 5 6 6 7 9 7 7 7 7 6 6 6 6 6 6
5 5 5 5 6 6 6 6 5 4 5 5 5 6 6 7 9 10 8 4 5 6 6 6 6 7 10 10 6 6 7 6 8 10 10 10 11 11 7 3 3 4 6
6 6 6 5 6 7 7 6 5 5 5 5 6 6 7 7 9 10 9 4 5 6 5 6 9 10 11 10 6 6 7 7 5 5 6 7 7 8 9 6 5 5 5
5 5 5 5 6 6 6 5 5 5 5 5 6 6 6 8 9 11 10 5 5 5 5 5 6 10 11 11 9 7 9 7 5 5 5 4 4 4 4 5 5 5 6
5 5 5 5 5 5 5 5 5 5 5 5 5 6 5 6 8 9 11 10 8 6 6 6 6 10 11 11 9 9 10 7 3 4 4 5 4 4 4 4 5 6 7
5 5 5 5 4 4 5 5 4 4 5 5 5 6 6 5 6 10 11 11 11 7 6 9 10 11 10 8 9 10 7 4 3 4 5 5 4 4 4 3 4 4 5
5 5 5 4 4 4 4 5 5 5 5 5 6 6 6 5 5 4 5 6 7 6 5 8 10 10 8 7 7 6 4 4 4 5 5 4 3 3 3 3 4 3 3
5 5 5 5 5 5 5 5 6 6 7 7 6 6 6 7 8 9 6 5 4 5 4 4 3 3 3 4 4 4 4 4 4 4 4 4 4 3 4 3 3 3 4
5 5 5 4 4 4 4 5 7 8 10 11 10 9 8 10 11 11 10 10 9 8 5 4 4 4 5 5 5 4 4 5 4 4 4 4 4 4 4 3 4 4 5
6 6 5 5 5 5 5 5 5 6 8 10 11 12 11 11 11 11 10 10 9 8 5 4 5 5 5 5 5 5 5 5 4 4 5 5 4 4 4 4 4 4 5
6 6 6 5 5 5 5 5 5 5 5 5 7 10 11 11 11 10 10 7 5 5 4 5 5 5 5 5 5 5 5 4 4 4 5 5 4 4 4 4 4 5 5
5 4 5 5 5 5 5 5 5 6 6 6 5 6 9 9 9 9 8 5 5 5 5 5 5 5 5 5 5 5 5 5 5 4 5 5 4 4 5 5 5 6 5
5 7 6 5 5 5 5 5 5 6 6 6 6 5 4 4 4 5 5 5 5 5 5 5 5 5 5 5 5 4 5 5 5 5 5 5 4 4 5 5 5 4 4
4 5 7 5 5 5 5 5 6 6 6 6 6 7 8 5 6 6 5 5 5 6 5 5 5 5 5 4 4 5 5 5 4 4 4 4 4 4 4 4 4 4 4
4 5 5 5 5 5 5 5 5 6 6 7 6 6 10 6 5 5 5 5 5 5 5 5 5 5 5 5 5 5 5 5 5 4 4 4 4 4 4 4 4 4 4
5 5 5 5 5 7 7 5 5 6 6 6 6 5 5 5 5 5 5 5 4 4 4 4 5 4 4 5 5 5 5 5 5 5 5 4 4 4 4 4 5 4 4
5 5 6 5 5 5 5 5 5 6 6 6 6 6 5 5 5 6 5 4 4 4 4 4 5 5 6 5 5 5 6 6 6 6 6 5 5 4 4 4 4 4 4
5 5 5 5 5 5 5 5 5 5 6 6 5 5 5 5 5 5 5 4 5 4 5 5 5 5 6 7 6 6 7 8 7 6 5 5 5 5 4 4 4 3 3
5 5 5 5 5 5 5 5 5 5 5 5 5 5 5 5 5 5 4 4 4 4 4 4 5 6 6 6 7 7 8 8 8 7 5 4 4 4 4 3 4 3 3
Wind_Direction
187 185 182 186 184 182 189 200 198 198 196 201 205 208 219 227 225 224 236 237 240 255 252 244 251 246 245 244 238 239 240 234 257 275 268 284 287 294 308 313 310 310 308
188 182 186 184 179 187 201 208 200 201 203 206 206 213 225 228 225 227 239 244 241 248 252 249 255 251 243 241 238 240 245 239 245 269 280 280 274 278 290 299 308 305 304
177 179 185 190 192 203 211 211 208 208 212 211 209 218 227 231 232 233 236 244 244 245 244 244 251 245 249 245 238 241 246 254 245 255 273 275 278 284 291 295 294 296 297
178 184 197 207 208 212 214 212 214 212 215 219 223 227 231 236 238 237 235 242 247 248 244 241 243 238 241 243 245 241 240 247 248 254 269 276 276 277 275 289 299 293 293
183 197 214 218 214 210 211 215 217 219 224 224 227 236 238 241 240 237 236 240 241 249 250 246 245 244 245 247 248 238 231 241 247 253 264 275 274 275 271 275 286 296 292
194 213 221 220 220 218 219 218 218 223 228 227 234 237 242 247 253 253 250 243 240 243 251 252 250 251 254 257 258 253 244 243 243 249 259 260 264 261 263 268 277 291 292
204 215 218 220 225 229 225 220 223 227 228 233 239 240 246 250 257 259 257 253 241 243 245 248 257 256 256 247 257 260 259 257 253 248 250 253 256 251 253 262 263 268 271
214 223 223 222 230 231 226 228 231 228 227 234 241 242 248 256 259 262 263 261 250 246 243 241 245 251 248 247 246 253 254 257 259 254 246 251 250 245 240 249 256 268 274
223 229 230 225 229 229 231 237 235 230 236 239 242 241 246 258 257 259 261 255 254 254 251 245 242 245 255 257 250 251 260 262 265 260 260 261 259 257 250 249 256 271 281
231 233 232 227 229 230 232 237 237 233 239 242 248 244 242 250 256 260 260 251 257 260 256 249 249 251 257 256 245 243 256 261 257 268 269 268 264 259 254 242 236 253 269
234 232 231 230 233 234 235 236 234 236 241 245 251 255 248 249 258 260 260 250 246 257 258 255 250 255 258 257 254 245 253 260 249 249 258 262 262 259 259 249 237 237 249
228 230 234 235 240 241 231 237 232 227 239 250 256 264 260 254 257 261 260 258 255 253 256 254 253 256 258 258 257 253 258 259 245 246 255 259 258 257 257 258 252 248 247
229 235 240 243 245 236 226 231 238 230 235 248 249 259 268 265 261 264 264 265 262 258 256 255 259 261 261 259 256 256 254 241 235 248 252 255 251 250 254 266 269 263 267
234 241 239 238 246 243 231 224 227 230 235 244 248 254 263 265 259 254 254 263 263 263 264 264 265 261 256 255 258 253 234 225 234 242 247 251 246 245 250 253 264 267 275
238 242 242 239 238 244 242 233 232 232 230 236 242 243 248 259 257 253 256 253 246 249 260 266 261 255 244 245 244 238 229 230 239 237 241 249 251 254 259 254 252 256 258
241 244 241 240 239 239 245 262 248 244 252 252 251 255 260 260 268 265 265 267 267 263 264 255 253 248 243 239 241 242 235 234 232 236 239 241 244 248 258 260 257 254 259
237 243 242 238 238 239 240 244 266 271 258 256 258 261 263 265 266 265 267 268 267 261 253 248 249 248 245 239 239 240 240 234 226 230 236 240 243 246 251 256 257 261 262
243 243 242 239 238 238 237 239 243 254 269 274 267 265 266 266 266 265 265 267 261 249 241 246 249 249 245 241 241 243 242 236 230 233 235 235 233 241 250 253 252 255 262
247 246 242 241 239 236 236 238 242 245 255 266 275 274 268 269 266 263 258 246 245 249 246 245 246 247 245 241 241 239 235 234 234 234 235 236 235 238 249 250 253 257 262
250 253 252 248 242 239 235 236 242 245 249 253 257 261 261 261 254 251 239 235 239 245 244 246 245 244 243 240 237 235 233 232 230 233 237 237 235 237 245 247 249 251 255
252 254 256 255 245 241 238 239 241 242 246 251 254 255 255 252 251 248 245 241 241 242 243 243 244 241 240 239 236 233 232 234 231 232 234 235 236 243 245 245 248 248 251
247 250 248 248 249 246 245 240 240 242 246 252 260 259 259 255 250 252 250 248 245 242 240 240 243 238 234 232 231 231 233 234 230 227 230 233 237 242 242 241 243 248 246
246 250 253 253 250 254 256 246 242 244 248 251 253 253 252 246 246 248 250 250 245 243 241 237 237 239 236 234 230 225 228 232 229 224 226 233 236 238 237 239 238 242 243
245 247 250 253 252 249 248 248 245 247 248 250 250 248 247 245 246 249 250 248 245 244 241 237 235 233 233 237 239 235 235 236 234 229 224 226 231 235 235 236 237 236 235
247 248 250 250 252 252 252 250 248 247 248 250 251 250 247 244 246 249 245 239 238 241 240 238 237 233 230 232 236 238 235 236 238 234 222 222 220 223 228 230 232 232 232
251 250 251 252 252 251 250 252 251 248 248 250 248 247 246 245 246 246 241 236 238 239 239 240 236 232 233 236 236 236 235 238 240 236 225 218 211 216 219 227 227 224 217
Height
1486 1487 1489 1489 1490 1491 1492 1493 1493 1494 1494 1495 1495 1495 1494 1494 1494 1493 1493 1493 1492 1492 1491 1491 1490 1490 1489 1488 1488 1488 1487 1487 1485 1482 1483 1482 1482 1481 1479 1478 1477 1475 1473
1484 1485 1486 1486 1487 1488 1489 1489 1490 1490 1491 1491 1491 1490 1490 1490 1489 1489 1489 1488 1488 1487 1487 1486 1485 1485 1484 1484 1483 1483 1482 1482 1481 1478 1477 1477 1476 1476 1474 1473 1471 1470 1469
1481 1481 1482 1483 1483 1484 1485 1486 1486 1486 1486 1486 1486 1486 1486 1485 1485 1484 1484 1483 1483 1482 1482 1481 1481 1480 1479 1479 1479 1478 1478 1477 1476 1475 1472 1472 1471 1471 1469 1468 1467 1465 1464
1478 1478 1478 1479 1480 1480 1481 1481 1482 1482 1482 1482 1482 1481 1481 1481 1480 1480 1479 1478 1478 1477 1477 1476 1476 1476 1475 1475 1474 1473 1473 1472 1471 1470 1468 1467 1466 1465 1464 1463 1461 1460 1458
1474 1474 1475 1475 1476 1477 1477 1477 1477 1478 1477 1477 1477 1476 1476 1476 1475 1475 1474 1473 1473 1472 1471 1471 1471 1470 1470 1469 1469 1468 1467 1467 1466 1464 1463 1462 1461 1460 1459 1458 1456 1454 1453
1470 1470 1471 1472 1472 1472 1472 1472 1472 1472 1472 1472 1472 1471 1471 1471 1470 1470 1469 1468 1467 1467 1466 1465 1465 1465 1464 1464 1463 1462 1462 1461 1460 1459 1458 1457 1455 1455 1454 1453 1452 1450 1447
1466 1467 1467 1467 1467 1467 1467 1467 1467 1467 1467 1467 1466 1466 1466 1465 1465 1465 1464 1463 1462 1461 1460 1460 1459 1459 1458 1457 1457 1456 1456 1455 1455 1455 1452 1451 1451 1450 1449 1448 1447 1445 1443
1462 1462 1462 1462 1462 1462 1462 1462 1462 1462 1462 1461 1461 1461 1460 1460 1460 1459 1458 1457 1456 1455 1455 1454 1453 1452 1452 1452 1450 1450 1449 1449 1449 1448 1447 1446 1446 1445 1444 1443 1441 1440 1438
1457 1457 1457 1457 1457 1457 1457 1457 1456 1456 1456 1456 1456 1455 1454 1454 1454 1453 1452 1451 1450 1449 1448 1448 1447 1446 1446 1446 1445 1443 1442 1442 1442 1442 1441 1441 1440 1439 1439 1438 1436 1434 1431
1452 1452 1452 1452 1452 1452 1451 1451 1451 1451 1450 1450 1450 1449 1449 1448 1448 1447 1447 1445 1444 1443 1442 1441 1441 1441 1440 1439 1439 1437 1436 1436 1436 1435 1435 1434 1434 1433 1433 1432 1430 1429 1427
1448 1448 1448 1447 1447 1447 1446 1446 1446 1445 1445 1444 1444 1443 1443 1442 1442 1441 1440 1440 1438 1437 1436 1435 1435 1434 1434 1433 1433 1431 1430 1430 1429 1429 1428 1428 1427 1427 1426 1426 1425 1424 1422
1443 1442 1442 1442 1441 1441 1441 1440 1440 1440 1439 1438 1438 1437 1436 1436 1436 1435 1434 1434 1433 1431 1430 1429 1428 1428 1427 1427 1426 1425 1425 1425 1424 1423 1422 1421 1421 1420 1420 1419 1419 1418 1417
1437 1437 1437 1436 1436 1436 1435 1435 1434 1434 1433 1432 1432 1430 1430 1430 1429 1429 1428 1427 1426 1425 1424 1423 1422 1421 1421 1421 1420 1420 1419 1419 1418 1417 1416 1416 1415 1415 1414 1413 1412 1411 1410
1432 1431 1431 1431 1430 1430 1430 1429 1429 1428 1427 1426 1425 1425 1424 1424 1423 1423 1422 1421 1420 1419 1418 1417 1416 1415 1414 1414 1414 1414 1413 1413 1413 1412 1411 1410 1410 1409 1408 1407 1406 1405 1403
1426 1426 1425 1425 1425 1424 1424 1423 1423 1422 1422 1421 1420 1419 1418 1417 1417 1417 1417 1415 1415 1414 1413 1411 1410 1409 1408 1408 1408 1408 1408 1408 1407 1407 1406 1405 1404 1403 1403 1402 1401 1400 1398
1420 1420 1420 1419 1419 1418 1418 1417 1416 1416 1416 1415 1415 1414 1413 1413 1412 1412 1411 1410 1409 1409 1408 1406 1404 1404 1403 1403 1403 1402 1402 1402 1402 1401 1401 1400 1399 1398 1397 1397 1396 1395 1393
1415 1414 1414 1413 1413 1412 1412 1411 1409 1409 1409 1409 1408 1408 1408 1407 1406 1406 1405 1405 1404 1403 1402 1400 1399 1399 1398 1398 1397 1397 1397 1397 1396 1396 1395 1395 1394 1393 1392 1391 1391 1389 1388
1409 1409 1408 1407 1407 1406 1406 1405 1404 1403 1402 1401 1402 1402 1401 1401 1400 1400 1400 1399 1398 1397 1396 1395 1394 1394 1393 1393 1392 1392 1391 1391 1391 1390 1390 1390 1389 1388 1388 1387 1386 1385 1384
1403 1402 1402 1402 1401 1400 1400 1399 1399 1398 1397 1396 1395 1395 1395 1395 1394 1394 1393 1393 1392 1391 1390 1390 1389 1388 1388 1387 1387 1386 1386 1386 1386 1385 1385 1385 1384 1384 1383 1382 1381 1380 1379
1397 1397 1396 1395 1395 1394 1394 1393 1393 1392 1391 1390 1390 1389 1389 1388 1387 1387 1387 1386 1386 1385 1385 1384 1384 1383 1383 1382 1382 1381 1381 1381 1380 1380 1380 1380 1379 1379 1378 1377 1377 1376 1375
1391 1391 1390 1389 1389 1388 1388 1387 1387 1386 1385 1384 1384 1384 1384 1383 1382 1381 1381 1381 1380 1380 1379 1379 1378 1378 1377 1377 1376 1376 1376 1375 1375 1375 1375 1374 1374 1374 1373 1373 1372 1371 1371
1385 1385 1384 1383 1383 1382 1382 1381 1381 1380 1379 1379 1378 1378 1378 1377 1376 1376 1375 1375 1375 1374 1374 1373 1372 1372 1372 1372 1371 1371 1371 1370 1370 1370 1370 1370 1369 1369 1369 1368 1368 1367 1367
1380 1379 1378 1377 1377 1377 1376 1375 1375 1374 1373 1373 1372 1372 1371 1371 1371 1370 1370 1369 1369 1369 1368 1368 1367 1367 1367 1367 1366 1366 1366 1366 1366 1366 1365 1365 1365 1364 1364 1363 1363 1363 1362
1374 1373 1373 1372 1371 1371 1370 1369 1369 1368 1368 1367 1366 1366 1366 1365 1365 1364 1364 1364 1363 1363 1363 1362 1362 1361 1361 1361 1361 1361 1361 1361 1361 1361 1361 1361 1360 1360 1360 1359 1359 1359 1359
1369 1368 1367 1366 1366 1365 1364 1364 1363 1363 1362 1361 1361 1360 1360 1359 1359 1359 1359 1358 1358 1358 1357 1357 1357 1357 1357 1357 1357 1357 1357 1357 1357 1357 1356 1356 1356 1356 1356 1355 1355 1355 1355
1363 1362 1362 1361 1360 1360 1359 1358 1358 1357 1357 1356 1355 1355 1354 1354 1354 1353 1353 1353 1353 1352 1352 1352 1352 1352 1352 1352 1352 1352 1352 1352 1352 1353 1352 1352 1352 1352 1352 1352 1352 1352 1352